,,PA_Meas_PMT16A,,PR_Meas_QMR101_102,,RH_Meas_QMH101,,SR_Meas_QMS101,,TA_Meas_QMH101,,GenWind,,GenWind,
time,status,PA,status,PR,status,RH,status,SR,status,TA,status,DirAvg,status,SpdAvg,
2016-12-17, 14:44:04,VALID,919.369,VALID,0,INVALID,126.427,VALID,165.03,VALID,20.3269,VALID,3,VALID,0.642187,
2016-12-17, 14:45:04,VALID,919.367,VALID,0,INVALID,126.694,VALID,186.733,VALID,20.4244,VALID,9,VALID,0.192969,
2016-12-17, 15:04:04,VALID,919.298,VALID,0,INVALID,125.413,VALID,157.079,VALID,20.699,VALID,13,VALID,0.0832031,
2016-12-17, 15:05:04,VALID,919.341,VALID,0,INVALID,125.42,VALID,160.302,VALID,20.6975,VALID,14,VALID,1.95664,
2016-12-17, 15:06:04,VALID,919.329,VALID,0,INVALID,125.878,VALID,168.36,VALID,20.756,VALID,4,VALID,0,
2016-12-17, 15:07:04,VALID,919.321,VALID,0,INVALID,126.053,VALID,182.113,VALID,20.8145,VALID,3,VALID,0,
2016-12-17, 15:08:04,VALID,919.34,VALID,0,INVALID,125.901,VALID,241.85,VALID,20.8535,VALID,360,VALID,0.000390625,
2016-12-17, 15:09:04,VALID,919.316,VALID,0,INVALID,124.46,VALID,253.991,VALID,20.8535,VALID,331,VALID,0.412891,
2016-12-17, 15:10:04,VALID,919.303,VALID,0,INVALID,124.384,VALID,256.032,VALID,20.873,VALID,358,VALID,1.51484,
2016-12-17, 15:11:04,VALID,919.303,VALID,0,INVALID,124.46,VALID,215.634,VALID,20.9316,VALID,357,VALID,1.88516,
2016-12-17, 15:12:04,VALID,919.312,VALID,0,INVALID,123.842,VALID,213.056,VALID,20.9706,VALID,304,VALID,0,
2016-12-17, 15:44:04,VALID,919.476,VALID,0,INVALID,122.607,VALID,153.533,VALID,21.3006,VALID,26,VALID,0,
2016-12-17, 16:04:04,VALID,919.572,VALID,0,INVALID,120.069,VALID,182.328,VALID,21.3981,VALID,62,VALID,0,
2016-12-17, 16:05:04,VALID,919.587,VALID,0,INVALID,121.67,VALID,200.163,VALID,21.4372,VALID,9,VALID,0,
2016-12-17, 16:06:04,VALID,919.539,VALID,0,INVALID,121.266,VALID,210.692,VALID,21.4762,VALID,43,VALID,0,
2016-12-17, 16:07:04,VALID,919.579,VALID,0,INVALID,115.03,VALID,223.907,VALID,21.4177,VALID,301,VALID,0.230469,
2016-12-17, 16:08:04,VALID,919.557,VALID,0,INVALID,117.309,VALID,245.181,VALID,21.3591,VALID,44,VALID,0.0078125,
2016-12-17, 16:09:04,VALID,919.548,VALID,0,INVALID,120.93,VALID,259.148,VALID,21.3981,VALID,27,VALID,0.358594,
2016-12-17, 16:10:04,VALID,919.573,VALID,0,INVALID,122.066,VALID,281.066,VALID,21.4762,VALID,303,VALID,0,
2016-12-17, 16:11:04,VALID,919.572,VALID,0,INVALID,118.918,VALID,248.834,VALID,21.5542,VALID,200,VALID,0.00429688,
2016-12-17, 16:12:04,VALID,919.562,VALID,0,INVALID,119.581,VALID,223.263,VALID,21.6306,VALID,19,VALID,0,
2016-12-17, 16:13:04,VALID,919.577,VALID,0,INVALID,115.731,VALID,194.683,VALID,21.6908,VALID,241,VALID,0,
2016-12-17, 16:14:04,VALID,919.568,VALID,0,INVALID,114.71,VALID,188.989,VALID,21.7103,VALID,243,VALID,0,
2016-12-17, 16:15:04,VALID,919.615,VALID,0,INVALID,119.695,VALID,173.517,VALID,21.7493,VALID,206,VALID,0,
2016-12-17, 16:27:04,VALID,919.581,VALID,0,INVALID,125.039,VALID,186.303,VALID,21.0275,VALID,133,VALID,0,
2016-12-17, 16:28:04,VALID,919.612,VALID,0,INVALID,125.642,VALID,167.931,VALID,21.1055,VALID,106,VALID,0,
2016-12-17, 16:30:04,VALID,919.587,VALID,0,INVALID,125.161,VALID,174.377,VALID,21.086,VALID,61,VALID,0.130078,
2016-12-17, 16:31:04,VALID,919.59,VALID,0,INVALID,125.817,VALID,207.576,VALID,21.1836,VALID,34,VALID,0,
2016-12-17, 16:32:04,VALID,919.579,VALID,0,INVALID,126.091,VALID,230.246,VALID,21.2616,VALID,17,VALID,0,
2016-12-17, 16:33:04,VALID,919.604,VALID,0,INVALID,125.459,VALID,188.344,VALID,21.2811,VALID,255,VALID,0,
2016-12-17, 16:34:04,VALID,919.565,VALID,0,INVALID,125.055,VALID,160.517,VALID,21.3396,VALID,7,VALID,0,
2016-12-17, 16:35:04,VALID,919.597,VALID,0,INVALID,124.933,VALID,169.65,VALID,21.3786,VALID,360,VALID,0,
2016-12-17, 16:36:04,VALID,919.619,VALID,0,INVALID,123.004,VALID,183.08,VALID,21.3201,VALID,350,VALID,0,
2016-12-17, 16:37:04,VALID,919.605,VALID,0,INVALID,124.178,VALID,242.172,VALID,21.3396,VALID,14,VALID,0.618359,
2016-12-17, 16:38:04,VALID,919.611,VALID,0,INVALID,124.605,VALID,228.957,VALID,21.3981,VALID,3,VALID,1.00273,
2016-12-17, 16:39:04,VALID,919.547,VALID,0,INVALID,124.437,VALID,243.354,VALID,21.4177,VALID,3,VALID,1.07031,
2016-12-17, 16:40:04,VALID,919.559,VALID,0,INVALID,125.047,VALID,273.76,VALID,21.455,VALID,11,VALID,0.256641,
2016-12-17, 16:41:04,VALID,919.549,VALID,0,INVALID,124.521,VALID,517.866,VALID,21.5347,VALID,328,VALID,0,
2016-12-17, 16:42:04,VALID,919.476,VALID,0,INVALID,124.246,VALID,490.576,VALID,21.6713,VALID,36,VALID,0,
2016-12-17, 16:43:04,VALID,919.471,VALID,0,INVALID,123.454,VALID,541.611,VALID,21.8062,VALID,28,VALID,0,
2016-12-17, 16:44:04,VALID,919.433,VALID,0,INVALID,122.928,VALID,586.951,VALID,22.003,VALID,5,VALID,0.0148437,
2016-12-17, 16:45:04,VALID,919.479,VALID,0,INVALID,121.075,VALID,566.752,VALID,22.1591,VALID,354,VALID,0.607422,
2016-12-17, 16:46:04,VALID,919.476,VALID,0,INVALID,110.936,VALID,439.005,VALID,22.2762,VALID,316,VALID,0.592188,
2016-12-17, 16:47:04,VALID,919.463,VALID,0,VALID,104,VALID,360.358,VALID,22.2371,VALID,23,VALID,0,
2016-12-17, 16:48:04,VALID,919.425,VALID,0,VALID,100.713,VALID,358.101,VALID,22.3347,VALID,21,VALID,0.154297,
2016-12-17, 16:49:04,VALID,919.394,VALID,0,VALID,100.568,VALID,333.927,VALID,22.3135,VALID,12,VALID,1.86719,
2016-12-17, 16:50:04,VALID,919.356,VALID,0,VALID,93.2191,VALID,441.046,VALID,22.2354,VALID,24,VALID,4.62617,
2016-12-17, 16:51:04,VALID,919.394,VALID,0,VALID,96.1694,VALID,382.598,VALID,22.1786,VALID,274,VALID,0.371484,
2016-12-17, 16:52:04,VALID,919.378,VALID,0,INVALID,112.217,VALID,461.245,VALID,22.2388,VALID,6,VALID,0.120312,
2016-12-17, 16:53:04,VALID,919.379,VALID,0,INVALID,112.362,VALID,352.622,VALID,22.3737,VALID,341,VALID,0.000390625,
2016-12-17, 16:54:04,VALID,919.399,VALID,0,VALID,94.9801,VALID,372.713,VALID,22.4518,VALID,13,VALID,0.890234,
2016-12-17, 16:55:04,VALID,919.406,VALID,0,VALID,91.5191,VALID,719.319,VALID,22.5299,VALID,322,VALID,0,
2016-12-17, 16:56:04,VALID,919.416,VALID,0,VALID,92.3958,VALID,450.501,VALID,22.7055,VALID,267,VALID,0.00351562,
2016-12-17, 16:57:04,VALID,919.421,VALID,0,VALID,92.8608,VALID,339.729,VALID,22.8812,VALID,224,VALID,0,
2016-12-17, 16:58:04,VALID,919.436,VALID,0,VALID,87.9132,VALID,302.877,VALID,22.9397,VALID,37,VALID,0,
2016-12-17, 16:59:04,VALID,919.48,VALID,0,VALID,88.9958,VALID,288.802,VALID,23.0568,VALID,53,VALID,0,
2016-12-17, 17:00:04,VALID,919.444,VALID,0,VALID,96.3829,VALID,284.934,VALID,23.1349,VALID,39,VALID,0,
2016-12-17, 17:01:04,VALID,919.458,VALID,0,VALID,88.8509,VALID,249.263,VALID,23.1527,VALID,45,VALID,0,
2016-12-17, 17:02:04,VALID,919.447,VALID,0,VALID,87.5778,VALID,215.742,VALID,23.1527,VALID,132,VALID,0,
2016-12-17, 17:03:04,VALID,919.465,VALID,0,VALID,87.654,VALID,234.114,VALID,23.1136,VALID,18,VALID,0.366797,
2016-12-17, 17:04:04,VALID,919.443,VALID,0,VALID,87.5244,VALID,301.48,VALID,23.0959,VALID,325,VALID,0.423438,
2016-12-17, 17:05:04,VALID,919.4,VALID,0,VALID,86.6249,VALID,569.546,VALID,22.977,VALID,352,VALID,1.04609,
2016-12-17, 17:06:04,VALID,919.401,VALID,0,VALID,86.7926,VALID,517.329,VALID,22.8812,VALID,11,VALID,0.296875,
2016-12-17, 17:07:04,VALID,919.322,VALID,0,VALID,91.9384,VALID,611.877,VALID,22.8599,VALID,23,VALID,1.425,
2016-12-17, 17:08:04,VALID,919.317,VALID,0,VALID,89.8648,VALID,355.2,VALID,23.0356,VALID,21,VALID,0.680469,
2016-12-17, 17:09:04,VALID,919.297,VALID,0,VALID,91.4734,VALID,640.134,VALID,23.1935,VALID,6,VALID,0.955078,
2016-12-17, 17:10:04,VALID,919.296,VALID,0,VALID,86.7164,VALID,330.704,VALID,23.3283,VALID,310,VALID,0.233203,
2016-12-17, 17:11:04,VALID,919.25,VALID,0,VALID,84.658,VALID,330.811,VALID,23.3674,VALID,350,VALID,0.294922,
2016-12-17, 17:12:04,VALID,919.261,VALID,0,VALID,85.9388,VALID,321.142,VALID,23.3478,VALID,343,VALID,0,
2016-12-17, 17:13:04,VALID,919.26,VALID,0,VALID,86.2818,VALID,350.903,VALID,23.3674,VALID,20,VALID,0.283594,
2016-12-17, 17:14:04,VALID,919.237,VALID,0,VALID,85.8092,VALID,724.261,VALID,23.465,VALID,339,VALID,0.0078125,
2016-12-17, 17:15:04,VALID,919.218,VALID,0,VALID,86.3657,VALID,386.466,VALID,23.6016,VALID,47,VALID,0.0105469,
2016-12-17, 17:16:04,VALID,919.247,VALID,0,VALID,84.902,VALID,396.995,VALID,23.7169,VALID,19,VALID,0.0804688,
2016-12-17, 17:17:04,VALID,919.231,VALID,0,VALID,83.423,VALID,443.625,VALID,23.8358,VALID,319,VALID,0,
2016-12-17, 17:18:04,VALID,919.224,VALID,0,VALID,84.0558,VALID,316.522,VALID,23.795,VALID,14,VALID,0.111719,
2016-12-17, 17:19:04,VALID,919.192,VALID,0,VALID,81.2885,VALID,338.977,VALID,23.6602,VALID,346,VALID,2.96211,
2016-12-17, 17:20:04,VALID,919.178,VALID,0,VALID,82.897,VALID,358.961,VALID,23.3265,VALID,12,VALID,3.55078,
2016-12-17, 17:21:04,VALID,919.218,VALID,0,VALID,85.0392,VALID,331.993,VALID,23.2485,VALID,20,VALID,0.159375,
2016-12-17, 17:22:04,VALID,919.192,VALID,0,VALID,84.3607,VALID,261.297,VALID,23.1899,VALID,25,VALID,1.08398,
2016-12-17, 17:23:04,VALID,919.165,VALID,0,VALID,83.1486,VALID,282.033,VALID,23.1527,VALID,310,VALID,0,
2016-12-17, 17:24:04,VALID,919.138,VALID,0,VALID,84.3683,VALID,294.389,VALID,23.1314,VALID,311,VALID,0,
2016-12-17, 17:25:04,VALID,919.133,VALID,0,VALID,84.0482,VALID,318.563,VALID,23.2307,INVALID,360,VALID,0,
2016-12-17, 17:26:04,VALID,919.11,VALID,0,VALID,84.902,VALID,387.325,VALID,23.2875,VALID,17,VALID,0.466016,
2016-12-17, 17:27:04,VALID,919.109,VALID,0,VALID,85.9616,VALID,608.439,VALID,23.3656,VALID,26,VALID,1.89688,
2016-12-17, 17:28:04,VALID,919.07,VALID,0,VALID,84.3455,VALID,661.3,VALID,23.5022,VALID,333,VALID,0.301172,
2016-12-17, 17:29:04,VALID,919.091,VALID,0,VALID,85.5652,VALID,358.639,VALID,23.5998,VALID,7,VALID,0.755859,
2016-12-17, 17:30:04,VALID,919.037,VALID,0,VALID,82.7293,VALID,325.332,VALID,23.5839,VALID,349,VALID,0.246484,
2016-12-17, 17:31:04,VALID,919.087,VALID,0,VALID,83.3163,VALID,471.344,VALID,23.543,VALID,328,VALID,1.14336,
2016-12-17, 17:32:04,VALID,919.04,VALID,0,VALID,81.0064,VALID,593.183,VALID,23.5235,VALID,190,VALID,0,
2016-12-17, 17:33:04,VALID,919.077,VALID,0,VALID,81.7001,VALID,700.409,VALID,23.543,VALID,346,VALID,0.216016,
2016-12-17, 17:34:04,VALID,919.081,VALID,0,VALID,81.906,VALID,359.928,VALID,23.5803,VALID,355,VALID,0.571875,
2016-12-17, 17:35:04,VALID,919.133,VALID,0,VALID,79.497,VALID,558.694,VALID,23.5235,VALID,352,VALID,2.52813,
2016-12-17, 17:36:04,VALID,919.096,VALID,0,VALID,78.6737,VALID,630.572,VALID,23.504,VALID,17,VALID,0.00117188,
2016-12-17, 17:37:04,VALID,919.089,VALID,0,VALID,82.9199,VALID,532.263,VALID,23.6992,VALID,1,VALID,0.239453,
2016-12-17, 17:38:04,VALID,919.138,VALID,0,VALID,79.8095,VALID,483.915,VALID,23.8926,VALID,355,VALID,0.0890625,
2016-12-17, 17:39:04,VALID,919.159,VALID,0,VALID,78.3763,VALID,581.901,VALID,23.9725,VALID,20,VALID,1.90195,
2016-12-17, 17:40:04,VALID,919.128,VALID,0,VALID,79.192,VALID,329.629,VALID,23.9335,VALID,21,VALID,1.08594,
2016-12-17, 17:41:04,VALID,919.147,VALID,0,VALID,78.1705,VALID,342.308,VALID,23.953,VALID,23,VALID,1.26094,
2016-12-17, 17:42:04,VALID,919.174,VALID,0,VALID,76.966,VALID,482.196,VALID,23.8944,VALID,285,VALID,0,
2016-12-17, 17:43:04,VALID,919.216,VALID,0,VALID,76.7983,VALID,342.308,VALID,23.8749,VALID,342,VALID,1.23789,
2016-12-17, 17:44:04,VALID,919.175,VALID,0,VALID,77.7817,VALID,445.129,VALID,23.7968,VALID,308,VALID,0.0359375,
2016-12-17, 17:45:04,VALID,919.182,VALID,0,VALID,78.5669,VALID,350.903,VALID,23.7578,VALID,349,VALID,0.476563,
2016-12-17, 17:46:04,VALID,919.187,VALID,0,VALID,79.6647,VALID,550.958,VALID,23.8749,VALID,360,VALID,0,
2016-12-17, 17:47:04,VALID,919.095,VALID,0,VALID,77.0422,VALID,439.649,VALID,23.9725,VALID,237,VALID,0,
2016-12-17, 17:48:04,VALID,919.124,VALID,0,VALID,79.5122,VALID,386.573,VALID,24.0311,VALID,359,VALID,0.506641,
2016-12-17, 17:49:04,VALID,919.126,VALID,0,VALID,80.3356,VALID,348.861,VALID,24.0896,VALID,348,VALID,0.907422,
2016-12-17, 17:50:04,VALID,919.141,VALID,0,VALID,80.5948,VALID,329.952,VALID,24.2068,VALID,17,VALID,0.930859,
2016-12-17, 17:51:04,VALID,919.074,VALID,0,VALID,75.6853,VALID,349.613,VALID,24.1873,VALID,341,VALID,0.534375,
2016-12-17, 17:52:04,VALID,919.052,VALID,0,VALID,78.2925,VALID,354.448,VALID,23.9316,VALID,11,VALID,2.07734,
2016-12-17, 17:53:04,VALID,919.056,VALID,0,VALID,80.6634,VALID,403.871,VALID,23.8145,VALID,28,VALID,0.918359,
2016-12-17, 17:54:04,VALID,919.061,VALID,0,VALID,80.4499,VALID,343.167,VALID,23.8731,VALID,1,VALID,0.587891,
2016-12-17, 17:55:04,VALID,919.022,VALID,0,VALID,80.5948,VALID,412.467,VALID,23.953,VALID,26,VALID,1.75625,
2016-12-17, 17:56:04,VALID,919.027,VALID,0,VALID,80.6405,VALID,352.622,VALID,23.953,VALID,13,VALID,2.27305,
2016-12-17, 17:57:04,VALID,918.996,VALID,0,VALID,78.5745,VALID,673.871,VALID,23.8358,VALID,333,VALID,2.08164,
2016-12-17, 17:58:04,VALID,919.021,VALID,0,VALID,79.6266,VALID,474.46,VALID,23.8358,VALID,352,VALID,1.36055,
2016-12-17, 17:59:04,VALID,918.906,VALID,0,VALID,79.9696,VALID,342.415,VALID,23.9725,VALID,224,VALID,1.01328,
2016-12-17, 18:00:04,VALID,918.97,VALID,0,VALID,78.3992,VALID,320.927,VALID,24.0097,VALID,359,VALID,1.52773,
2016-12-17, 18:01:04,VALID,918.894,VALID,0,VALID,78.971,VALID,550.743,VALID,23.9512,VALID,353,VALID,2.23711,
2016-12-17, 18:02:04,VALID,918.934,VALID,0,VALID,79.901,VALID,417.194,VALID,23.8554,VALID,27,VALID,2.27344,
2016-12-17, 18:03:04,VALID,918.92,VALID,0,VALID,80.0992,VALID,359.713,VALID,23.8145,VALID,16,VALID,1.30469,
2016-12-17, 18:04:04,VALID,918.885,VALID,0,VALID,78.1019,VALID,655.176,VALID,23.8944,VALID,201,VALID,0.307813,
2016-12-17, 18:05:04,VALID,918.909,VALID,0,VALID,78.9633,VALID,613.919,VALID,23.9512,VALID,2,VALID,0.00898437,
2016-12-17, 18:06:04,VALID,918.909,VALID,0,VALID,79.8172,VALID,659.474,VALID,23.9512,VALID,29,VALID,0.968359,
2016-12-17, 18:07:04,VALID,918.89,VALID,0,VALID,80.023,VALID,707.822,VALID,24.1073,VALID,7,VALID,0,
2016-12-17, 18:08:04,VALID,918.866,VALID,0,VALID,77.2557,VALID,409.566,VALID,24.283,VALID,254,VALID,0,
2016-12-17, 18:09:04,VALID,918.873,VALID,0,VALID,78.6737,VALID,406.665,VALID,24.3416,VALID,41,VALID,0,
2016-12-17, 18:10:04,VALID,918.889,VALID,0,VALID,77.0956,VALID,807.528,VALID,24.5368,VALID,28,VALID,0.00234375,
2016-12-17, 18:11:04,VALID,918.851,VALID,0,VALID,77.4768,VALID,551.173,VALID,24.654,VALID,9,VALID,0,
2016-12-17, 18:12:04,VALID,918.888,VALID,0,VALID,75.6777,VALID,708.037,VALID,24.7711,VALID,93,VALID,0,
2016-12-17, 18:13:04,VALID,918.835,VALID,0,VALID,75.67,VALID,631.754,VALID,24.8688,VALID,39,VALID,0.515625,
2016-12-17, 18:14:04,VALID,918.843,VALID,0,VALID,76.0207,VALID,358.424,VALID,25.025,VALID,21,VALID,1.48633,
2016-12-17, 18:15:04,VALID,918.842,VALID,0,VALID,71.4619,VALID,644.969,VALID,25.1031,VALID,291,VALID,1.11484,
2016-12-17, 18:16:04,VALID,918.765,VALID,0,VALID,75.5099,VALID,512.924,VALID,24.9078,VALID,11,VALID,4.04492,
2016-12-17, 18:17:04,VALID,918.842,VALID,0,VALID,78.0485,VALID,582.976,VALID,24.7711,VALID,12,VALID,1.89258,
2016-12-17, 18:18:04,VALID,918.899,VALID,0,VALID,76.4857,VALID,590.604,VALID,24.8492,VALID,7,VALID,0.433984,
2016-12-17, 18:19:04,VALID,918.859,VALID,0,VALID,74.0767,VALID,482.626,VALID,25.0055,VALID,341,VALID,0,
2016-12-17, 18:20:04,VALID,918.878,VALID,0,VALID,75.5785,VALID,472.849,VALID,25.0445,VALID,26,VALID,0.0375,
2016-12-17, 18:21:04,VALID,918.905,VALID,0,VALID,75.6472,VALID,509.486,VALID,25.2007,VALID,1,VALID,0.0640625,
2016-12-17, 18:22:04,VALID,918.869,VALID,0,VALID,70.8901,VALID,621.225,VALID,25.2593,VALID,267,VALID,0.125781,
2016-12-17, 18:23:04,VALID,918.883,VALID,0,VALID,75.3498,VALID,717.707,VALID,25.064,VALID,21,VALID,2.61055,
2016-12-17, 18:24:04,VALID,918.895,VALID,0,VALID,76.0741,VALID,776.907,VALID,25.0836,VALID,113,VALID,0.167187,
2016-12-17, 18:25:04,VALID,918.922,VALID,0,VALID,71.6372,VALID,706.426,VALID,25.0621,VALID,248,VALID,1.78203,
2016-12-17, 18:26:04,VALID,918.866,VALID,0,VALID,74.2292,VALID,677.846,VALID,24.7711,VALID,279,VALID,0.0265625,
2016-12-17, 18:27:04,VALID,918.929,VALID,0,VALID,78.5059,VALID,646.581,VALID,24.8083,VALID,340,VALID,0.372266,
2016-12-17, 18:28:04,VALID,918.918,VALID,0,VALID,77.0346,VALID,723.616,VALID,24.9664,VALID,14,VALID,0.359375,
2016-12-17, 18:29:04,VALID,918.895,VALID,0,VALID,74.8315,VALID,741.989,VALID,25.1402,VALID,63,VALID,0.485938,
2016-12-17, 18:30:04,VALID,918.901,VALID,0,VALID,72.0794,VALID,683.218,VALID,24.945,VALID,233,VALID,0.155469,
2016-12-17, 18:31:04,VALID,918.907,VALID,0,VALID,74.435,VALID,518.189,VALID,24.8864,VALID,353,VALID,1.47578,
2016-12-17, 18:32:04,VALID,918.878,VALID,0,VALID,73.6193,VALID,490.899,VALID,24.7516,VALID,12,VALID,0.641797,
2016-12-17, 18:33:04,VALID,918.831,VALID,0,VALID,73.9776,VALID,438.575,VALID,24.7302,VALID,18,VALID,1.86445,
2016-12-17, 18:34:04,VALID,918.83,VALID,0,VALID,75.266,VALID,568.901,VALID,24.7693,VALID,36,VALID,0.474609,
2016-12-17, 18:35:04,VALID,918.854,VALID,0,VALID,73.5507,VALID,682.466,VALID,24.8083,VALID,292,VALID,1.14805,
2016-12-17, 18:36:04,VALID,918.749,VALID,0,VALID,75.2431,VALID,612.415,VALID,24.8278,VALID,27,VALID,1.64453,
2016-12-17, 18:37:04,VALID,918.791,VALID,0,VALID,73.4516,VALID,614.993,VALID,24.7693,VALID,7,VALID,2.7293,
2016-12-17, 18:38:04,VALID,918.836,VALID,0,VALID,74.7628,VALID,615.853,VALID,24.7107,VALID,353,VALID,1.03555,
2016-12-17, 18:39:04,VALID,918.692,VALID,0,VALID,74.8467,VALID,585.769,VALID,24.8064,VALID,6,VALID,2.73047,
2016-12-17, 18:40:04,VALID,918.751,VALID,0,VALID,75.7081,VALID,628.961,VALID,24.9059,VALID,359,VALID,0.756641,
2016-12-17, 18:41:04,VALID,918.726,VALID,0,VALID,73.7108,VALID,690.309,VALID,25.0407,VALID,30,VALID,2.16602,
2016-12-17, 18:42:04,VALID,918.771,VALID,0,VALID,74.1072,VALID,760.683,VALID,25.2379,VALID,11,VALID,1.30391,
2016-12-17, 18:43:04,VALID,918.694,VALID,0,VALID,72.0413,VALID,576.529,VALID,25.3355,VALID,354,VALID,1.2832,
2016-12-17, 18:44:04,VALID,918.717,VALID,0,VALID,72.6969,VALID,729.203,VALID,25.1988,VALID,354,VALID,1.46523,
2016-12-17, 18:45:04,VALID,918.679,VALID,0,VALID,74.5494,VALID,727.054,VALID,25.1617,VALID,26,VALID,1.28164,
2016-12-17, 18:46:04,VALID,918.674,VALID,0,VALID,73.1619,VALID,705.673,VALID,25.355,VALID,333,VALID,0.526953,
2016-12-17, 18:47:04,VALID,918.63,VALID,0,VALID,71.8202,VALID,697.508,VALID,25.3765,VALID,14,VALID,3.0082,
2016-12-17, 18:48:04,VALID,918.615,VALID,0,VALID,73.9395,VALID,645.829,VALID,25.3765,VALID,359,VALID,0.664063,
2016-12-17, 18:49:04,VALID,918.64,VALID,0,VALID,73.1314,VALID,700.839,VALID,25.5308,VALID,2,VALID,1.74805,
2016-12-17, 18:50:04,VALID,918.63,VALID,0,VALID,74.74,VALID,798.503,VALID,25.5327,VALID,16,VALID,2.29766,
2016-12-17, 18:51:04,VALID,918.63,VALID,0,VALID,73.1162,VALID,497.13,VALID,25.3746,VALID,6,VALID,1.75664,
2016-12-17, 18:52:04,VALID,918.626,VALID,0,VALID,74.0844,VALID,429.442,VALID,25.316,VALID,24,VALID,0.755469,
2016-12-17, 18:53:04,VALID,918.603,VALID,0,VALID,73.909,VALID,515.288,VALID,25.2007,VALID,353,VALID,1.64883,
2016-12-17, 18:54:04,VALID,918.62,VALID,0,VALID,75.4489,VALID,932.374,VALID,25.2379,VALID,358,VALID,2.03906,
2016-12-17, 18:55:04,VALID,918.58,VALID,0,VALID,73.444,VALID,946.879,VALID,25.316,VALID,22,VALID,1.20039,
2016-12-17, 18:56:04,VALID,918.526,VALID,0,VALID,76.7449,VALID,888.431,VALID,25.5894,VALID,8,VALID,1.23008,
2016-12-17, 18:57:04,VALID,918.587,VALID,0,VALID,74.7628,VALID,943.441,VALID,25.9038,VALID,8,VALID,1.52109,
2016-12-17, 18:58:04,VALID,918.568,VALID,0,VALID,70.2803,VALID,936.779,VALID,26.0776,VALID,359,VALID,1.0957,
2016-12-17, 18:59:04,VALID,918.548,VALID,0,VALID,67.2004,VALID,956.656,VALID,26.2144,VALID,240,VALID,0,
2016-12-17, 19:00:04,VALID,918.476,VALID,0,VALID,66.3695,VALID,925.928,VALID,26.1167,VALID,25,VALID,2.9043,
2016-12-17, 19:01:04,VALID,918.537,VALID,0,VALID,68.8166,VALID,906.051,VALID,26.0581,VALID,1,VALID,2.77539,
2016-12-17, 19:02:04,VALID,918.542,VALID,0,VALID,69.4265,VALID,936.994,VALID,26.0776,VALID,9,VALID,0.598047,
2016-12-17, 19:03:04,VALID,918.513,VALID,0,VALID,68.0161,VALID,956.226,VALID,26.0796,VALID,288,VALID,1.50703,
2016-12-17, 19:04:04,VALID,918.556,VALID,0,VALID,68.6489,VALID,896.919,VALID,25.9019,VALID,3,VALID,0.980078,
2016-12-17, 19:05:04,VALID,918.579,VALID,0,VALID,67.1394,VALID,936.887,VALID,26.0776,VALID,16,VALID,1.17383,
2016-12-17, 19:06:04,VALID,918.521,VALID,0,VALID,69.3197,VALID,959.342,VALID,26.1362,VALID,37,VALID,2.6457,
2016-12-17, 19:07:04,VALID,918.526,VALID,0,VALID,70.4022,VALID,548.165,VALID,26.1948,VALID,346,VALID,0.184375,
2016-12-17, 19:08:04,VALID,918.516,VALID,0,VALID,68.8776,VALID,934.845,VALID,26.3902,VALID,311,VALID,0.757813,
2016-12-17, 19:09:04,VALID,918.473,VALID,0,VALID,61.4524,VALID,910.027,VALID,26.4097,VALID,251,VALID,0.1375,
2016-12-17, 19:10:04,VALID,918.425,VALID,0,VALID,64.3035,VALID,925.498,VALID,25.9585,VALID,268,VALID,3.25156,
2016-12-17, 19:11:04,VALID,918.462,VALID,0,VALID,71.3094,VALID,924.639,VALID,25.6284,VALID,324,VALID,0.518359,
2016-12-17, 19:12:04,VALID,918.395,VALID,0,VALID,68.1076,VALID,910.671,VALID,25.9019,VALID,343,VALID,1.88555,
2016-12-17, 19:13:04,VALID,918.313,VALID,0,VALID,68.5574,VALID,283.967,VALID,26.0561,VALID,34,VALID,1.88047,
2016-12-17, 19:14:04,VALID,918.246,VALID,0,VALID,66.7125,VALID,292.025,VALID,26.1558,VALID,20,VALID,4.88242,
2016-12-17, 19:15:04,VALID,918.137,VALID,0,VALID,66.0035,VALID,881.447,VALID,25.8999,VALID,11,VALID,4.00859,
2016-12-17, 19:16:04,VALID,918.269,VALID,0,VALID,67.8408,VALID,820.421,VALID,25.8042,VALID,11,VALID,2.5793,
2016-12-17, 19:17:04,VALID,918.183,VALID,0,VALID,67.1852,VALID,754.022,VALID,25.7847,VALID,17,VALID,3.79648,
2016-12-17, 19:18:04,VALID,918.267,VALID,0,VALID,68.3439,VALID,675.053,VALID,25.8433,VALID,3,VALID,0.808594,
2016-12-17, 19:19:04,VALID,918.258,VALID,0,VALID,67.4596,VALID,691.169,VALID,25.8823,VALID,23,VALID,3.13594,
2016-12-17, 19:20:04,VALID,918.199,VALID,0,VALID,68.5421,VALID,691.276,VALID,25.9585,VALID,348,VALID,0.009375,
2016-12-17, 19:21:04,VALID,918.244,VALID,0,VALID,65.5385,VALID,478.543,VALID,25.9995,VALID,353,VALID,1.46719,
2016-12-17, 19:22:04,VALID,918.165,VALID,0,VALID,65.2946,VALID,302.125,VALID,25.9389,VALID,48,VALID,1.49922,
2016-12-17, 19:23:04,VALID,918.155,VALID,0,VALID,68.1533,VALID,636.481,VALID,25.7847,VALID,42,VALID,1.42266,
2016-12-17, 19:24:04,VALID,918.175,VALID,0,VALID,66.5067,VALID,694.607,VALID,25.8608,VALID,336,VALID,0.889844,
2016-12-17, 19:25:04,VALID,918.133,VALID,0,VALID,68.5803,VALID,694.07,VALID,25.8804,VALID,20,VALID,2.26406,
2016-12-17, 19:26:04,VALID,918.187,VALID,0,VALID,67.4215,VALID,673.226,VALID,26.0561,VALID,324,VALID,0.00585938,
2016-12-17, 19:27:04,VALID,918.156,VALID,0,VALID,63.2362,VALID,674.73,VALID,26.1147,VALID,328,VALID,1.08008,
2016-12-17, 19:28:04,VALID,918.16,VALID,0,VALID,64.6466,VALID,729.525,VALID,26.0171,VALID,270,VALID,0.0277344,
2016-12-17, 19:29:04,VALID,918.141,VALID,0,VALID,68.6717,VALID,555.686,VALID,26.0366,VALID,11,VALID,2.14023,
2016-12-17, 19:30:04,VALID,918.13,VALID,0,VALID,68.1,VALID,720.285,VALID,26.2124,VALID,353,VALID,0.0664063,
2016-12-17, 19:31:04,VALID,918.111,VALID,0,VALID,66.7201,VALID,711.368,VALID,26.3882,VALID,13,VALID,1.38477,
2016-12-17, 19:32:04,VALID,918.04,VALID,0,VALID,64.8753,VALID,539.462,VALID,26.4663,VALID,8,VALID,2.6832,
2016-12-17, 19:33:04,VALID,918.022,VALID,0,VALID,64.1434,VALID,578.033,VALID,26.5054,VALID,360,VALID,1.51992,
2016-12-17, 19:34:04,VALID,918.03,VALID,0,VALID,65.2259,VALID,527.321,VALID,26.4468,VALID,60,VALID,0,
2016-12-17, 19:35:04,VALID,918.059,VALID,0,VALID,65.5995,VALID,529.577,VALID,26.4077,VALID,19,VALID,1.30039,
2016-12-17, 19:36:04,VALID,918.057,VALID,0,VALID,66.4533,VALID,515.503,VALID,26.4077,VALID,12,VALID,1.94766,
2016-12-17, 19:37:04,VALID,917.99,VALID,0,VALID,65.9197,VALID,532.801,VALID,26.3296,VALID,26,VALID,1.38047,
2016-12-17, 19:38:04,VALID,917.938,VALID,0,VALID,66.1484,VALID,586.629,VALID,26.0952,VALID,14,VALID,1.89609,
2016-12-17, 19:39:04,VALID,917.989,VALID,0,VALID,65.7138,VALID,445.451,VALID,26.1538,VALID,9,VALID,1.87891,
2016-12-17, 19:40:04,VALID,918.01,VALID,0,VALID,64.5475,VALID,473.063,VALID,26.2514,VALID,334,VALID,0.403125,